Location: Maccacari
(45.1333°N, 11.1333°E)
Time: 21:56:39
(UTC+00:00)

Cosmos 2278 Rocket - Pass Details

Date: 18 September 2020
Orbit: 841 x 845 km, 71.0° (Epoch: 24 October)

Event Time Altitude Azimuth Distance (km) Brightness Sun altitude
Exits shadow 21:22:24 16° 20° (NNE) 2,053 4.5 -37.8°
Drops below altitude 10° 21:23:31 10° 22° (NNE) 2,469 4.9 -37.9°
Sets 21:26:00 0° 25° (NNE) 3,408 5.7 -38.1°
